Regional Weather Roundup
Issued by NWS Cleveland, OH

Home | Current Version | Previous Version | Graphics & Text | Print | Product List | Glossary On
Versions: 1 2 3 4 5 6 7 8 9 10 11 12 13 14 15 16 17 18 19 20 21 22 23 24 25 26 27 28 29 30 31 32 33 34 35 36 37 38 39 40 41 42 43 44 45 46 47 48 49 50
000
ASUS41 KCLE 010210
RWRCLE
OHIO REGIONAL WEATHER ROUNDUP
NATIONAL WEATHER SERVICE WILMINGTON, OH
1000 PM EDT TUE MAY 31 2016

NOTE: "FAIR" INDICATES FEW OR NO CLOUDS BELOW 12,000 FEET WITH NO
SIGNIFICANT WEATHER AND/OR OBSTRUCTIONS TO VISIBILITY.

OHZ001>008-015>018-024>027-034-035-043-044-010300-
   NORTHWEST OHIO

CITY           SKY/WX    TMP DP  RH WIND       PRES   REMARKS
DEFIANCE       FAIR      73  47  39 E7        30.01S
FINDLAY        FAIR      72  44  36 E7        30.01R
TOLEDO EXPRESS FAIR      70  49  47 E9        30.01S
TOLEDO EXEC    FAIR      71  50  47 E6        30.02F
LIMA           FAIR      73  46  38 E9        30.01R
$$

OHZ009>014-019>023-028>033-038-089-010300-
   NORTHEAST OHIO

CITY           SKY/WX    TMP DP  RH WIND       PRES   REMARKS
CLE-HOPKINS    MOCLDY    73  47  39 NE14      30.05R
CLE-LAKEFRONT  FAIR      71  53  52 NE10      30.02S
CUY CO. ARPT   PTCLDY    68  54  60 NE6       30.05S
LORAIN-ELYRIA  FAIR      69  47  45 E8        30.03S
ASHTABULA      FAIR      61  53  75 CALM      30.05S
AKRON-CANTON   FAIR      69  47  45 NE10      30.04R
WOOSTER        FAIR      68  49  50 NE7       30.04R
MANSFIELD      FAIR      65  50  58 NE7       30.04R
YOUNGSTOWN     CLOUDY    68  49  50 N7        30.05R
$$

OHZ042-051>053-060>062-070>072-077>081-010300-
  SOUTHWEST OHIO

CITY           SKY/WX    TMP DP  RH WIND       PRES   REMARKS
CINC-COVINGTON FAIR      74  60  61 CALM      29.97R
CINC-LUNKEN    FAIR      69  67  93 CALM      29.96R
HAMILTON       FAIR      70  63  78 CALM      29.96R
DAYTON         CLOUDY    74  57  55 NE8       29.99R
WRIGHT-PAT AFB CLOUDY    79  56  46 E9        29.97R
DAYTON GENERAL MOCLDY    77  59  53 CALM      29.96S
WILMINGTON     MOCLDY    73  64  73 CALM      29.98R
$$

OHZ036-037-039>041-045>050-054>059-063>069-073>076-082>088-010300-
  CENTRAL AND SOUTHEAST OHIO

CITY           SKY/WX    TMP DP  RH WIND       PRES   REMARKS
COLUMBUS       MOCLDY    75  57  53 NE8       29.99R
OSU AIRPORT    FAIR      75  56  51 NE9       29.99R
BOLTON FIELD   FAIR      75  60  59 NE7       30.00R
RICKENBACK AFB FAIR      74  60  60 NE9       29.98R
NEWARK         FAIR      76  58  53 NE3       29.99R
MARION         FAIR      68  51  54 NE7       30.02R
LANCASTER      FAIR      76  59  55 NE9       29.99R
ZANESVILLE     FAIR      77  61  57 NE5       30.00R
NEW PHILLY     FAIR      75  55  49 CALM      30.03R
$$




USA.gov is the U.S. government's official web portal to all federal, state and local government web resources and services.